| time (UTC) | temp F | wind direction | speed knots | gust knots | rain 1hr in | rain 24hr in | rain mn in | humidity % | barometer mb |
| 20260904015545 | 66 | 0 | 3.5 | 0.0 | 0.00 | 0.00 | 0.00 | 80 | |
| 20260904014545 | 66 | 0 | 0.9 | 0.0 | 0.00 | 0.00 | 0.00 | 79 | |
| 20260904013515 | 67 | 0 | 1.7 | 0.0 | 0.00 | 0.00 | 0.00 | 78 | |
| 20260904012515 | 67 | 0 | 2.6 | 0.0 | 0.00 | 0.00 | 0.00 | 77 | |
| 20260904011445 | 67 | 0 | 5.2 | 0.0 | 0.00 | 0.00 | 0.00 | 76 | |
| 20260904010445 | 68 | 0 | 3.5 | 0.0 | 0.00 | 0.00 | 0.00 | 75 | |
| 20260904005445 | 68 | 0 | 1.7 | 0.0 | 0.00 | 0.00 | 0.00 | 75 | |
| 20260904004415 | 68 | 0 | 1.7 | 0.0 | 0.00 | 0.00 | 0.00 | 75 | |
| 20260904003345 | 68 | 0 | 3.5 | 0.0 | 0.00 | 0.00 | 0.00 | 74 | |
| 20260904002345 | 68 | 0 | 2.6 | 0.0 | 0.00 | 0.00 | 0.00 | 74 | |
| 20260904001315 | 68 | 0 | 3.5 | 0.0 | 0.00 | 0.00 | 0.00 | 74 | |
| 20260904000248 | 68 | 0 | 1.7 | 0.0 | 0.00 | 0.00 | 0.00 | 74 | |
| 20260903235215 | 68 | 0 | 1.7 | 0.0 | 0.00 | 0.00 | 0.00 | 75 | |
| 20260903234215 | 67 | 0 | 1.7 | 0.0 | 0.00 | 0.00 | 0.00 | 75 | |
| 20260903233145 | 67 | 0 | 5.2 | 0.0 | 0.00 | 0.00 | 0.00 | 75 | |
| 20260903232115 | 68 | 0 | 2.6 | 0.0 | 0.00 | 0.00 | 0.00 | 74 | |
| 20260903231045 | 68 | 0 | 3.5 | 0.0 | 0.00 | 0.00 | 0.00 | 74 | |
| 20260903230045 | 68 | 0 | 4.3 | 0.0 | 0.00 | 0.00 | 0.00 | 74 | |
| 20260903225045 | 68 | 0 | 1.7 | 0.0 | 0.00 | 0.00 | 0.00 | 74 | |
| 20260903224015 | 68 | 0 | 3.5 | 0.0 | 0.00 | 0.00 | 0.00 | 74 | |
| 20260903223015 | 68 | 0 | 1.7 | 0.0 | 0.00 | 0.00 | 0.00 | 74 | |
| 20260903221945 | 68 | 0 | 3.5 | 0.0 | 0.00 | 0.00 | 0.00 | 73 | |
| 20260903220945 | 68 | 0 | 2.6 | 0.0 | 0.00 | 0.00 | 0.00 | 73 | |
| 20260903215945 | 68 | 0 | 4.3 | 0.0 | 0.00 | 0.00 | 0.00 | 72 | |
| 20260903214945 | 68 | 0 | 3.5 | 0.0 | 0.00 | 0.00 | 0.00 | 72 | |
| 20260903213915 | 69 | 0 | 3.5 | 0.0 | 0.00 | 0.00 | 0.00 | 72 | |
| 20260903212915 | 69 | 0 | 3.5 | 0.0 | 0.00 | 0.00 | 0.00 | 71 | |
| 20260903211845 | 69 | 0 | 0.9 | 0.0 | 0.00 | 0.00 | 0.00 | 71 | |
| 20260903210815 | 69 | 0 | 3.5 | 0.0 | 0.00 | 0.00 | 0.00 | 69 | |
| 20260903205745 | 70 | 0 | 1.7 | 0.0 | 0.00 | 0.00 | 0.00 | 69 | |
| 20260903204715 | 69 | 0 | 1.7 | 0.0 | 0.00 | 0.00 | 0.00 | 69 | |
| 20260903203715 | 69 | 0 | 0.9 | 0.0 | 0.00 | 0.00 | 0.00 | 69 | |
| 20260903202645 | 69 | 0 | 1.7 | 0.0 | 0.00 | 0.00 | 0.00 | 69 | |
| 20260903201615 | 68 | 0 | 4.3 | 0.0 | 0.00 | 0.00 | 0.00 | 69 | |
| 20260903200615 | 68 | 0 | 3.5 | 0.0 | 0.00 | 0.00 | 0.00 | 71 | |
| 20260903195615 | 68 | 0 | 2.6 | 0.0 | 0.00 | 0.00 | 0.00 | 70 | |
| 20260903194545 | 68 | 0 | 4.3 | 0.0 | 0.00 | 0.00 | 0.00 | 69 | |
| 20260903193545 | 69 | 0 | 4.3 | 0.0 | 0.00 | 0.00 | 0.00 | 68 | |
| 20260903192545 | 70 | 0 | 5.2 | 0.0 | 0.00 | 0.00 | 0.00 | 67 | |
| 20260903191515 | 70 | 0 | 1.7 | 0.0 | 0.00 | 0.00 | 0.00 | 67 | |
| 20260903190515 | 69 | 0 | 3.5 | 0.0 | 0.00 | 0.00 | 0.00 | 66 | |
| 20260903185515 | 69 | 0 | 3.5 | 0.0 | 0.00 | 0.00 | 0.00 | 67 | |
| 20260903184515 | 69 | 0 | 5.2 | 0.0 | 0.00 | 0.00 | 0.00 | 66 | |
| 20260903183515 | 68 | 0 | 3.5 | 0.0 | 0.00 | 0.00 | 0.00 | 66 | |
| 20260903182445 | 68 | 0 | 3.5 | 0.0 | 0.00 | 0.00 | 0.00 | 66 | |
| 20260903181415 | 68 | 0 | 1.7 | 0.0 | 0.00 | 0.00 | 0.00 | 66 | |
| 20260903180415 | 68 | 0 | 6.1 | 0.0 | 0.00 | 0.00 | 0.00 | 65 | |
| 20260903175345 | 68 | 0 | 3.5 | 0.0 | 0.00 | 0.00 | 0.00 | 66 | |
| 20260903174315 | 67 | 0 | 3.5 | 0.0 | 0.00 | 0.00 | 0.00 | 66 | |
| 20260903173315 | 67 | 0 | 4.3 | 0.0 | 0.00 | 0.00 | 0.00 | 66 | |
| 20260903172315 | 67 | 0 | 1.7 | 0.0 | 0.00 | 0.00 | 0.00 | 67 | |
| 20260903171245 | 66 | 0 | 2.6 | 0.0 | 0.00 | 0.00 | 0.00 | 69 | |
| 20260903170245 | 65 | 0 | 1.7 | 0.0 | 0.00 | 0.00 | 0.00 | 69 | |
| 20260903165215 | 64 | 0 | 2.6 | 0.0 | 0.00 | 0.00 | 0.00 | 70 | |
| 20260903164215 | 64 | 0 | 1.7 | 0.0 | 0.00 | 0.00 | 0.00 | 70 | |
| 20260903163145 | 63 | 0 | 0.9 | 0.0 | 0.00 | 0.00 | 0.00 | 71 | |
| 20260903162115 | 63 | 0 | 1.7 | 0.0 | 0.00 | 0.00 | 0.00 | 72 | |
| 20260903161115 | 62 | 0 | 1.7 | 0.0 | 0.00 | 0.00 | 0.00 | 72 | |
| 20260903160045 | 62 | 0 | 1.7 | 0.0 | 0.00 | 0.00 | 0.00 | 73 | |
| 20260903155045 | 61 | 0 | 1.7 | 0.0 | 0.00 | 0.00 | 0.00 | 75 | |
| 20260903154015 | 61 | 0 | 0.9 | 0.0 | 0.00 | 0.00 | 0.00 | 76 | |
| 20260903153015 | 60 | 0 | 0.0 | 0.0 | 0.00 | 0.00 | 0.00 | 77 | |
| 20260903152015 | 60 | 0 | 0.9 | 0.0 | 0.00 | 0.00 | 0.00 | 77 | |
| 20260903151015 | 59 | 0 | 2.6 | 0.0 | 0.00 | 0.00 | 0.00 | 80 | |
| 20260903150015 | 59 | 0 | 0.9 | 0.0 | 0.00 | 0.00 | 0.00 | 81 | |
| 20260903145015 | 58 | 0 | 0.9 | 0.0 | 0.00 | 0.00 | 0.00 | 82 | |
| 20260903143945 | 58 | 0 | 1.7 | 0.0 | 0.00 | 0.00 | 0.00 | 82 | |
| 20260903142915 | 58 | 0 | 0.9 | 0.0 | 0.00 | 0.00 | 0.00 | 82 | |
| 20260903141915 | 58 | 0 | 3.5 | 0.0 | 0.00 | 0.00 | 0.00 | 83 | |
| 20260903140845 | 58 | 0 | 0.9 | 0.0 | 0.00 | 0.00 | 0.00 | 83 | |
| 20260903135815 | 58 | 0 | 0.9 | 0.0 | 0.00 | 0.00 | 0.00 | 83 | |
| 20260903134815 | 58 | 0 | 2.6 | 0.0 | 0.00 | 0.00 | 0.00 | 83 | |
| 20260903133815 | 58 | 0 | 1.7 | 0.0 | 0.00 | 0.00 | 0.00 | 82 | |
| 20260903132745 | 58 | 0 | 1.7 | 0.0 | 0.00 | 0.00 | 0.00 | 82 | |
| 20260903131745 | 58 | 0 | 0.9 | 0.0 | 0.00 | 0.00 | 0.00 | 81 | |
| 20260903130745 | 58 | 0 | 1.7 | 0.0 | 0.00 | 0.00 | 0.00 | 81 | |
| 20260903125715 | 58 | 0 | 4.3 | 0.0 | 0.00 | 0.00 | 0.00 | 80 | |
| 20260903124715 | 58 | 0 | 1.7 | 0.0 | 0.00 | 0.00 | 0.00 | 80 | |
| 20260903123715 | 58 | 0 | 2.6 | 0.0 | 0.00 | 0.54 | 0.00 | 80 | |
| 20260903122645 | 58 | 0 | 1.7 | 0.0 | 0.00 | 0.54 | 0.00 | 80 | |
| 20260903121645 | 59 | 0 | 1.7 | 0.0 | 0.00 | 0.54 | 0.00 | 79 | |
| 20260903120615 | 59 | 0 | 1.7 | 0.0 | 0.00 | 0.54 | 0.00 | 78 | |
| 20260903115615 | 59 | 0 | 1.7 | 0.0 | 0.00 | 0.54 | 0.00 | 77 | |
| 20260903114615 | 59 | 0 | 2.6 | 0.0 | 0.00 | 0.54 | 0.00 | 77 | |
| 20260903113545 | 60 | 0 | 2.6 | 0.0 | 0.00 | 0.54 | 0.00 | 77 | |
| 20260903112545 | 60 | 0 | 1.7 | 0.0 | 0.00 | 0.54 | 0.00 | 77 | |
| 20260903111515 | 60 | 0 | 2.6 | 0.0 | 0.00 | 0.54 | 0.00 | 77 | |
| 20260903110445 | 60 | 0 | 0.9 | 0.0 | 0.00 | 0.54 | 0.00 | 77 | |
| 20260903105415 | 60 | 0 | 1.7 | 0.0 | 0.00 | 0.54 | 0.00 | 77 | |
| 20260903104415 | 60 | 0 | 2.6 | 0.0 | 0.00 | 0.54 | 0.00 | 77 | |
| 20260903103345 | 60 | 0 | 1.7 | 0.0 | 0.00 | 0.54 | 0.00 | 77 | |
| 20260903102345 | 60 | 0 | 1.7 | 0.0 | 0.00 | 0.54 | 0.00 | 77 | |
| 20260903101345 | 60 | 0 | 0.9 | 0.0 | 0.00 | 0.54 | 0.00 | 77 | |
| 20260903100345 | 60 | 0 | 1.7 | 0.0 | 0.00 | 0.54 | 0.00 | 78 | |
| 20260903095315 | 60 | 0 | 1.7 | 0.0 | 0.00 | 0.54 | 0.00 | 78 | |
| 20260903094315 | 60 | 0 | 1.7 | 0.0 | 0.00 | 0.54 | 0.00 | 78 | |
| 20260903093245 | 59 | 0 | 0.9 | 0.0 | 0.00 | 0.54 | 0.00 | 79 | |
| 20260903092451 | 59 | 0 | 0.9 | 0.0 | 0.00 | 0.54 | 0.00 | 79 | |
| 20260903092245 | 59 | 0 | 0.9 | 0.0 | 0.00 | 0.54 | 0.00 | 79 | |
| 20260903091215 | 59 | 0 | 0.9 | 0.0 | 0.00 | 0.54 | 0.00 | 80 | |
| 20260903090215 | 59 | 0 | 0.9 | 0.0 | 0.00 | 0.54 | 0.00 | 80 | |
| 20260903085145 | 59 | 0 | 1.7 | 0.0 | 0.00 | 0.54 | 0.00 | 80 | |
| 20260903084145 | 59 | 0 | 1.7 | 0.0 | 0.00 | 0.54 | 0.00 | 80 | |
| 20260903083145 | 59 | 0 | 0.9 | 0.0 | 0.00 | 0.54 | 0.00 | 80 | |
| 20260903082115 | 59 | 0 | 1.7 | 0.0 | 0.00 | 0.54 | 0.00 | 80 | |
| 20260903081115 | 59 | 0 | 1.7 | 0.0 | 0.00 | 0.54 | 0.00 | 80 | |
| 20260903080045 | 59 | 0 | 0.9 | 0.0 | 0.00 | 0.54 | 0.00 | 80 | |
| 20260903075015 | 59 | 0 | 0.9 | 0.0 | 0.00 | 0.54 | 0.00 | 80 | |
| 20260903074015 | 59 | 0 | 0.9 | 0.0 | 0.00 | 0.54 | 0.00 | 81 | |
| 20260903073015 | 59 | 0 | 1.7 | 0.0 | 0.00 | 0.54 | 0.00 | 82 | |
| 20260903071945 | 57 | 0 | 0.9 | 0.0 | 0.00 | 0.54 | 0.00 | 85 | |
| 20260903070945 | 56 | 0 | 0.0 | 0.0 | 0.00 | 0.54 | 0.00 | 88 | |
| 20260903065945 | 56 | 0 | 0.0 | 0.0 | 0.00 | 0.54 | 0.54 | 88 | |
| 20260903064915 | 56 | 0 | 0.0 | 0.0 | 0.00 | 0.54 | 0.54 | 89 | |
| 20260903063845 | 56 | 0 | 0.0 | 0.0 | 0.00 | 0.54 | 0.54 | 89 | |
| 20260903062815 | 56 | 0 | 0.0 | 0.0 | 0.00 | 0.54 | 0.54 | 89 | |
| 20260903061815 | 56 | 0 | 0.0 | 0.0 | 0.00 | 0.54 | 0.54 | 86 | |
| 20260903060815 | 57 | 0 | 0.0 | 0.0 | 0.00 | 0.54 | 0.54 | 86 | |
| 20260903055745 | 57 | 0 | 0.0 | 0.0 | 0.00 | 0.54 | 0.54 | 86 | |
| 20260903054745 | 57 | 0 | 0.0 | 0.0 | 0.00 | 0.54 | 0.54 | 84 | |
| 20260903053745 | 58 | 0 | 0.0 | 0.0 | 0.00 | 0.54 | 0.54 | 84 | |
| 20260903052715 | 58 | 0 | 0.0 | 0.0 | 0.00 | 0.54 | 0.54 | 82 | |
| 20260903051645 | 59 | 0 | 0.0 | 0.0 | 0.00 | 0.54 | 0.54 | 81 | |
| 20260903050615 | 59 | 0 | 0.0 | 0.0 | 0.00 | 0.54 | 0.54 | 81 | |
| 20260903045615 | 60 | 0 | 0.0 | 0.0 | 0.00 | 0.54 | 0.54 | 80 | |
| 20260903044545 | 60 | 0 | 0.0 | 0.0 | 0.00 | 0.54 | 0.54 | 80 | |
| 20260903043545 | 61 | 0 | 0.0 | 0.0 | 0.00 | 0.54 | 0.54 | 77 | |
| 20260903042545 | 61 | 0 | 0.0 | 0.0 | 0.00 | 0.54 | 0.54 | 77 | |
| 20260903041545 | 61 | 0 | 0.0 | 0.0 | 0.00 | 0.54 | 0.54 | 77 | |
| 20260903040515 | 62 | 0 | 0.0 | 0.0 | 0.00 | 0.54 | 0.54 | 75 | |
| 20260903035446 | 63 | 0 | 0.0 | 0.0 | 0.00 | 0.54 | 0.54 | 75 | |
| 20260903034445 | 63 | 0 | 0.0 | 0.0 | 0.00 | 0.54 | 0.54 | 72 | |
| 20260903033415 | 64 | 0 | 0.0 | 0.0 | 0.00 | 0.54 | 0.54 | 70 | |
| 20260903032345 | 65 | 0 | 0.0 | 0.0 | 0.00 | 0.54 | 0.54 | 69 | |
| 20260903031345 | 66 | 0 | 0.0 | 0.0 | 0.00 | 0.54 | 0.54 | 67 | |
| 20260903030345 | 67 | 0 | 0.0 | 0.0 | 0.00 | 0.54 | 0.54 | 66 | |
| 20260903025315 | 68 | 0 | 0.0 | 0.0 | 0.00 | 0.54 | 0.54 | 64 | |
| 20260903024315 | 69 | 0 | 0.9 | 0.0 | 0.00 | 0.54 | 0.54 | 62 | |
| 20260903023245 | 69 | 0 | 2.6 | 0.0 | 0.00 | 0.54 | 0.54 | 61 | |
| 20260903022215 | 70 | 0 | 1.7 | 0.0 | 0.00 | 0.54 | 0.54 | 60 | |
| 20260903021145 | 71 | 0 | 2.6 | 0.0 | 0.00 | 0.54 | 0.54 | 58 |